Theta_e
295 295 294 294 295 298 299 296 295 294 293 292 291 292 291 292 292 292 293 294 294 295 295 297 299 300 302 303 306 307 307 310
294 293 293 295 298 298 296 293 292 291 291 291 290 291 291 291 291 291 292 292 293 294 294 294 296 298 298 300 302 304 306 308
292 292 292 297 297 294 293 291 290 290 290 290 289 290 290 290 290 291 290 291 291 292 293 293 295 296 296 296 298 301 304 307
291 290 294 295 292 291 291 289 289 289 288 288 288 289 288 289 290 291 290 290 291 291 291 291 293 294 295 296 296 298 301 306
289 291 293 291 290 290 289 289 288 287 288 287 288 289 289 290 289 289 290 289 290 291 291 291 292 293 294 295 295 297 301 304
287 290 290 290 290 289 288 288 287 286 287 287 288 289 288 288 288 289 289 289 290 290 291 292 292 293 294 294 295 295 298 300
288 289 288 289 288 288 287 287 287 286 286 287 287 287 287 288 288 288 288 289 289 289 289 290 292 293 293 293 293 293 296 296
287 287 288 288 289 287 287 287 286 285 286 286 287 286 286 287 287 286 288 289 288 288 289 289 291 293 293 292 293 294 295 296
287 287 288 289 288 288 287 286 285 285 285 285 285 285 286 286 286 286 288 287 286 287 289 290 291 293 293 292 293 294 293 294
286 286 287 287 288 286 286 286 285 284 284 285 285 285 285 285 285 285 286 286 286 287 288 288 290 293 293 292 290 289 288 289
285 287 286 286 286 285 285 285 284 284 284 285 285 285 285 285 285 285 285 285 285 285 287 288 289 293 293 290 287 286 286 286
285 286 285 286 286 285 285 284 285 285 285 285 285 285 285 285 286 286 285 286 285 285 286 287 288 290 291 290 287 286 286 285
284 285 286 286 285 285 285 285 285 285 285 285 285 285 285 286 286 286 286 285 285 285 285 285 286 288 290 290 289 289 286 285
285 285 285 285 285 284 285 285 285 285 285 285 286 285 286 285 285 286 286 285 285 284 283 283 284 285 289 289 289 288 286 286
286 285 284 286 284 283 285 284 284 285 284 285 285 285 285 286 285 285 285 285 285 284 284 284 284 284 285 285 285 285 285 286
285 287 286 287 284 283 283 285 285 285 285 285 286 285 285 285 285 284 285 285 284 284 284 283 282 284 286 285 284 284 285 284
285 286 286 286 284 282 280 281 283 286 285 285 286 286 285 284 284 287 287 287 287 287 285 284 286 287 287 287 287 287 286 283
283 285 286 287 286 281 280 278 280 285 284 286 284 284 284 284 284 282 285 286 286 286 286 286 286 286 286 286 286 286 284 280
283 284 285 286 286 283 281 280 277 282 279 284 284 284 283 283 283 283 282 281 280 284 285 285 285 285 285 285 284 280 281 280
281 282 283 284 287 283 279 279 281 283 283 283 283 282 282 282 282 282 282 281 281 280 280 281 284 284 283 283 279 278 277 277
Wind_Speed
11 13 12 13 14 15 15 14 15 17 16 14 15 16 17 16 16 16 15 15 15 16 16 16 18 18 17 15 15 16 13 12
12 11 12 13 14 14 14 16 16 14 14 14 15 16 15 15 15 15 16 16 16 15 14 15 14 15 14 14 15 16 16 16
12 11 12 14 15 14 13 15 16 13 15 15 16 15 15 15 16 15 15 15 17 15 14 14 15 17 17 17 15 17 17 18
11 10 12 14 14 13 14 16 15 15 16 15 16 15 16 16 16 15 16 16 16 15 15 15 15 15 16 17 18 19 18 18
9 11 12 14 13 14 15 15 14 14 15 15 17 16 16 16 16 16 15 15 16 15 15 15 15 15 17 18 16 16 16 16
8 10 13 12 13 13 15 13 13 14 14 16 16 16 15 15 15 15 15 14 15 14 14 14 14 12 15 16 13 12 13 10
8 10 11 12 12 14 15 12 13 14 14 15 16 15 14 14 14 14 14 14 12 12 12 12 9 15 16 12 10 12 11 9
7 8 9 11 11 13 12 11 12 13 14 14 14 14 12 14 14 13 10 7 6 8 9 10 11 14 14 19 11 9 9 9
5 7 10 10 10 11 11 10 10 12 12 13 13 13 12 13 13 11 6 4 1 3 6 7 7 11 13 11 8 7 5 9
7 7 9 9 10 10 10 10 9 11 12 13 13 12 12 11 12 10 7 5 4 2 5 6 6 11 11 8 4 4 6 5
6 6 5 8 9 10 9 10 10 11 13 12 11 11 11 10 10 7 4 6 5 7 4 4 4 8 11 12 6 6 6 8
6 5 6 7 8 9 9 10 10 9 11 11 10 10 10 8 6 7 5 6 8 9 10 12 9 9 12 17 6 6 7 7
6 4 4 5 6 9 9 10 9 8 9 10 8 7 7 8 7 7 5 8 9 9 9 8 8 11 14 14 15 12 10 8
6 4 3 4 3 8 10 8 9 8 9 9 8 8 7 8 7 5 7 7 9 8 8 8 9 9 17 19 21 21 13 9
6 6 4 6 4 4 7 7 5 7 8 8 7 8 9 7 7 7 7 7 7 8 8 7 8 7 7 10 14 24 17 18
7 7 5 5 5 4 5 7 5 4 5 5 5 6 9 12 10 8 10 9 7 7 7 8 9 10 14 12 9 10 14 14
8 6 6 5 5 4 3 5 3 3 3 4 4 5 5 6 10 23 23 24 22 21 15 12 20 23 24 24 22 21 21 12
10 8 6 6 7 3 4 2 2 3 3 2 3 3 4 5 6 8 14 25 24 23 23 22 19 21 22 24 24 21 18 12
8 8 7 7 7 4 5 3 3 2 2 1 2 2 3 4 6 6 7 9 8 20 17 20 21 21 20 20 18 13 13 10
7 8 7 9 9 6 5 5 5 2 2 2 2 3 3 4 5 7 7 7 7 5 11 13 21 23 23 21 10 9 9 8
Wind_Direction
312 320 317 313 310 304 307 311 305 299 295 291 288 284 281 278 274 270 270 267 256 252 256 261 253 248 237 237 234 227 224 219
313 313 313 311 310 316 317 308 302 302 298 291 290 289 282 277 274 270 267 262 263 255 248 253 258 247 246 245 240 239 230 221
310 315 314 316 322 319 308 308 305 302 302 296 298 292 284 278 275 270 265 261 260 254 247 249 243 239 241 246 251 243 239 223
316 321 323 330 320 312 312 311 311 313 311 304 299 296 294 284 280 273 264 258 253 245 238 238 236 239 231 234 239 244 245 235
319 326 335 323 312 312 315 316 318 317 310 305 309 306 299 294 286 278 268 258 249 239 231 228 233 234 232 230 232 245 241 246
323 326 325 315 312 318 320 323 323 315 313 315 309 304 299 294 288 279 270 256 243 236 230 225 226 224 226 224 227 239 245 271
319 323 312 317 310 319 322 326 322 315 322 312 309 307 305 305 303 298 285 265 236 225 222 223 226 226 216 225 230 232 256 251
293 296 310 309 316 315 319 321 320 315 324 312 313 306 315 317 315 309 313 302 219 218 215 215 223 217 218 219 231 230 237 253
278 299 314 304 310 310 319 315 315 320 323 314 315 315 322 327 321 320 316 323 287 220 211 208 216 216 228 222 214 230 232 191
267 285 303 304 315 316 324 320 324 335 324 321 318 319 326 337 329 327 349 356 339 243 207 219 216 210 215 204 126 144 134 125
258 277 293 309 322 319 331 317 341 338 325 315 319 325 330 336 335 327 356 23 18 33 33 202 198 207 168 121 107 113 107 79
252 269 283 299 329 324 330 328 340 337 322 320 333 332 326 340 348 344 355 38 41 49 50 54 58 69 108 120 104 118 103 97
246 253 282 300 336 330 336 327 337 342 324 329 336 334 340 351 348 359 16 43 45 49 52 49 53 74 85 98 107 111 103 99
241 253 273 301 343 326 328 329 343 359 333 339 349 349 346 4 0 359 28 42 53 45 48 41 42 48 71 91 94 92 90 94
239 238 255 281 308 282 316 320 342 18 346 349 1 14 19 25 18 15 27 45 47 55 57 55 57 61 68 81 86 88 91 91
240 237 234 249 277 303 322 319 11 13 353 354 8 17 46 50 36 40 41 44 55 53 50 63 62 62 70 76 85 91 99 99
242 231 223 219 263 282 302 320 4 17 26 5 9 27 35 58 63 56 60 59 59 66 75 75 82 79 79 81 83 88 93 83
239 237 207 199 247 237 260 291 322 81 359 23 18 30 32 48 57 77 63 64 63 63 66 72 79 74 76 79 76 78 88 83
219 224 213 198 220 200 225 213 232 149 106 20 15 33 62 58 64 56 63 69 56 52 66 72 78 82 85 88 81 66 58 69
203 223 208 208 211 176 199 219 198 174 144 116 69 46 62 70 76 83 79 72 63 51 45 42 63 67 68 69 73 85 83 81